Check out our new BloomSky Weather System.

Active alerts

Houston, TX
  Details for Houston, TX Heat Advisory  +1 additional alert
Galveston, TX
  Details for Galveston, TX Air Quality Alert


Thunder radar  blitzortung!


Rain radar more information rain snow radar


Visit our other weather sites:

Template documentation
and downloads

And another site



Weather Underground History page Text

Daily Summary for September 9, 2017 Units:  English    Metric   Both
« Previous Day
Next Day »
Daily Weekly Monthly Yearly Custom
  High: Low: Average:
Temperature: TemperatureF °F 62.6 °F 73.7 °F
Dew Point: DewpointF °F 59.7 °F 62.3 °F
Humidity: Humidity % 48 % 69 %
Wind Speed: WindSpeedMPH mph 0.0 mph 1.4 mph
Wind Gust: WindSpeedGustMPH mph - -
Wind:- - WSW
Pressure: PressureIn in 30.02 in -
Precipitation: 0.00 in    
Historical Graphs
 
 
Tabular Data for September 9, 2017
Time Temperature Dew Point Pressure Wind Wind Speed Wind Gust Humidity Rainfall Rate (Hourly)
TemperatureF °F DewpointF °F PressureIn in Calm     Humidity % HourlyPrecipIn in
00:02 68.0 °F 61.9 °F 30.09 in Calm   1.0 mph 81 % 0.00 in
00:07 67.8 °F 62.1 °F 30.09 in Calm     82 % 0.00 in
00:12 67.6 °F 61.9 °F 30.09 in Calm     82 % 0.00 in
00:17 67.8 °F 62.1 °F 30.09 in Calm   1.0 mph 82 % 0.00 in
00:22 67.8 °F 62.1 °F 30.09 in Calm   1.0 mph 82 % 0.00 in
00:27 68.0 °F 61.9 °F 30.09 in Calm   1.0 mph 81 % 0.00 in
00:33 68.2 °F 62.1 °F 30.09 in Calm   2.0 mph 81 % 0.00 in
00:38 68.4 °F 61.9 °F 30.09 in Calm   2.0 mph 80 % 0.00 in
00:43 68.5 °F 62.1 °F 30.09 in NW 2.0 mph 2.0 mph 80 % 0.00 in
00:48 68.5 °F 61.7 °F 30.09 in Calm   2.0 mph 79 % 0.00 in
00:53 68.7 °F 61.9 °F 30.08 in Calm   3.0 mph 79 % 0.00 in
00:58 68.7 °F 61.9 °F 30.08 in Calm   3.0 mph 79 % 0.00 in
01:03 68.7 °F 61.9 °F 30.08 in Calm   3.0 mph 79 % 0.00 in
01:08 68.5 °F 61.7 °F 30.08 in Calm   2.0 mph 79 % 0.00 in
01:13 68.5 °F 61.7 °F 30.08 in Calm   2.0 mph 79 % 0.00 in
01:18 68.5 °F 61.7 °F 30.08 in Calm   3.0 mph 79 % 0.00 in
01:23 68.4 °F 61.5 °F 30.08 in Calm   3.0 mph 79 % 0.00 in
01:28 68.4 °F 61.5 °F 30.08 in Calm   3.0 mph 79 % 0.00 in
01:33 68.4 °F 61.5 °F 30.08 in Calm   2.0 mph 79 % 0.00 in
01:38 68.4 °F 61.9 °F 30.08 in NNW 1.0 mph 3.0 mph 80 % 0.00 in
01:43 68.4 °F 61.9 °F 30.08 in Calm   3.0 mph 80 % 0.00 in
01:48 68.4 °F 61.9 °F 30.08 in Calm   3.0 mph 80 % 0.00 in
01:53 68.4 °F 61.5 °F 30.08 in NNE 1.0 mph 3.0 mph 79 % 0.00 in
01:58 68.4 °F 61.5 °F 30.08 in Calm   3.0 mph 79 % 0.00 in
02:03 68.4 °F 61.5 °F 30.07 in NNW 2.0 mph 3.0 mph 79 % 0.00 in
02:08 68.4 °F 61.5 °F 30.07 in Calm   3.0 mph 79 % 0.00 in
02:13 68.4 °F 61.5 °F 30.07 in Calm   5.0 mph 79 % 0.00 in
02:14 68.4 °F 61.5 °F 30.07 in Calm   5.0 mph 79 % 0.00 in
02:19 68.2 °F 61.3 °F 30.07 in NNW 1.0 mph 5.0 mph 79 % 0.00 in
02:24 68.0 °F 61.5 °F 30.07 in NW 1.0 mph 5.0 mph 80 % 0.00 in
02:29 67.8 °F 61.3 °F 30.07 in East 2.0 mph 3.0 mph 80 % 0.00 in
02:34 67.8 °F 61.3 °F 30.07 in NE 1.0 mph 4.0 mph 80 % 0.00 in
02:39 67.6 °F 61.2 °F 30.07 in Calm   4.0 mph 80 % 0.00 in
02:44 67.6 °F 61.5 °F 30.07 in Calm   4.0 mph 81 % 0.00 in
02:49 67.5 °F 61.3 °F 30.07 in Calm   3.0 mph 81 % 0.00 in
02:54 67.3 °F 61.2 °F 30.07 in Calm   3.0 mph 81 % 0.00 in
02:59 67.1 °F 61.2 °F 30.07 in NNW 2.0 mph 3.0 mph 81 % 0.00 in
03:04 67.1 °F 61.3 °F 30.07 in Calm   5.0 mph 82 % 0.00 in
03:09 66.9 °F 61.2 °F 30.07 in NW 1.0 mph 5.0 mph 82 % 0.00 in
03:14 66.9 °F 61.2 °F 30.07 in Calm   5.0 mph 82 % 0.00 in
03:19 66.7 °F 61.0 °F 30.07 in Calm   3.0 mph 82 % 0.00 in
03:24 66.7 °F 61.3 °F 30.07 in Calm   3.0 mph 83 % 0.00 in
03:29 66.6 °F 61.2 °F 30.07 in Calm   2.0 mph 83 % 0.00 in
03:30 66.6 °F 61.2 °F 30.07 in Calm   2.0 mph 83 % 0.00 in
03:35 66.4 °F 61.0 °F 30.07 in NE 1.0 mph 1.0 mph 83 % 0.00 in
03:40 66.4 °F 61.3 °F 30.07 in NNE 1.0 mph 2.0 mph 84 % 0.00 in
03:45 66.2 °F 61.2 °F 30.07 in Calm   2.0 mph 84 % 0.00 in
03:50 66.0 °F 61.0 °F 30.07 in Calm   2.0 mph 84 % 0.00 in
03:55 66.0 °F 61.0 °F 30.06 in Calm   2.0 mph 84 % 0.00 in
04:00 66.0 °F 61.0 °F 30.07 in North 1.0 mph 2.0 mph 84 % 0.00 in
04:05 65.8 °F 60.8 °F 30.07 in Calm   2.0 mph 84 % 0.00 in
04:10 65.8 °F 60.8 °F 30.07 in Calm   1.0 mph 84 % 0.00 in
04:15 65.7 °F 61.0 °F 30.07 in Calm   1.0 mph 85 % 0.00 in
04:20 65.7 °F 61.0 °F 30.07 in Calm   1.0 mph 85 % 0.00 in
04:26 65.5 °F 60.8 °F 30.07 in Calm   1.0 mph 85 % 0.00 in
04:31 65.3 °F 60.6 °F 30.07 in Calm   1.0 mph 85 % 0.00 in
04:36 64.9 °F 60.6 °F 30.07 in Calm   1.0 mph 86 % 0.00 in
04:41 64.9 °F 60.6 °F 30.07 in Calm   1.0 mph 86 % 0.00 in
04:46 64.8 °F 60.8 °F 30.07 in Calm   1.0 mph 87 % 0.00 in
04:51 64.8 °F 60.8 °F 30.07 in Calm   2.0 mph 87 % 0.00 in
04:56 64.8 °F 60.8 °F 30.07 in Calm   2.0 mph 87 % 0.00 in
05:01 64.6 °F 60.6 °F 30.07 in Calm   2.0 mph 87 % 0.00 in
05:06 64.6 °F 60.6 °F 30.07 in Calm   2.0 mph 87 % 0.00 in
05:11 64.6 °F 60.6 °F 30.07 in NNW 1.0 mph 2.0 mph 87 % 0.00 in
05:16 64.4 °F 60.4 °F 30.07 in Calm   2.0 mph 87 % 0.00 in
05:21 64.2 °F 60.6 °F 30.07 in Calm   2.0 mph 88 % 0.00 in
05:26 64.2 °F 60.6 °F 30.07 in Calm   2.0 mph 88 % 0.00 in
05:31 64.0 °F 60.4 °F 30.06 in Calm   1.0 mph 88 % 0.00 in
05:36 63.9 °F 60.3 °F 30.06 in NNW 1.0 mph 1.0 mph 88 % 0.00 in
05:41 63.7 °F 60.1 °F 30.06 in Calm   1.0 mph 88 % 0.00 in
05:46 63.7 °F 60.1 °F 30.06 in Calm   1.0 mph 88 % 0.00 in
05:51 63.7 °F 60.1 °F 30.07 in Calm   1.0 mph 88 % 0.00 in
05:56 63.5 °F 60.3 °F 30.07 in Calm   1.0 mph 89 % 0.00 in
06:01 63.3 °F 60.1 °F 30.07 in Calm   1.0 mph 89 % 0.00 in
06:06 63.3 °F 60.1 °F 30.07 in Calm   1.0 mph 89 % 0.00 in
06:11 63.3 °F 60.1 °F 30.07 in Calm   1.0 mph 89 % 0.00 in
06:16 63.3 °F 60.1 °F 30.07 in Calm   1.0 mph 89 % 0.00 in
06:21 63.3 °F 60.1 °F 30.07 in Calm   1.0 mph 89 % 0.00 in
06:26 63.3 °F 60.1 °F 30.07 in Calm   1.0 mph 89 % 0.00 in
06:31 63.5 °F 60.3 °F 30.08 in NW 1.0 mph 2.0 mph 89 % 0.00 in
06:32 63.5 °F 60.3 °F 30.07 in Calm   2.0 mph 89 % 0.00 in
06:37 63.5 °F 60.3 °F 30.08 in Calm   2.0 mph 89 % 0.00 in
06:42 63.3 °F 60.1 °F 30.08 in Calm   2.0 mph 89 % 0.00 in
06:48 63.1 °F 59.9 °F 30.08 in Calm   1.0 mph 89 % 0.00 in
06:53 63.1 °F 59.9 °F 30.09 in Calm   1.0 mph 89 % 0.00 in
06:58 63.0 °F 59.9 °F 30.09 in Calm   1.0 mph 90 % 0.00 in
07:03 63.0 °F 59.9 °F 30.08 in Calm   1.0 mph 90 % 0.00 in
07:08 62.8 °F 59.7 °F 30.09 in Calm   1.0 mph 90 % 0.00 in
07:13 62.8 °F 59.7 °F 30.09 in Calm   2.0 mph 90 % 0.00 in
07:18 62.8 °F 59.7 °F 30.09 in Calm   2.0 mph 90 % 0.00 in
07:23 62.6 °F 59.9 °F 30.09 in Calm   2.0 mph 91 % 0.00 in
07:28 62.6 °F 59.9 °F 30.09 in Calm   1.0 mph 91 % 0.00 in
07:33 62.6 °F 59.9 °F 30.10 in Calm   1.0 mph 91 % 0.00 in
07:38 62.8 °F 60.4 °F 30.10 in Calm   1.0 mph 92 % 0.00 in
07:43 63.1 °F 60.4 °F 30.10 in Calm   1.0 mph 91 % 0.00 in
07:48 63.3 °F 60.6 °F 30.10 in Calm   1.0 mph 91 % 0.00 in
07:53 64.0 °F 61.0 °F 30.10 in Calm   2.0 mph 90 % 0.00 in
07:58 64.8 °F 61.5 °F 30.10 in NW 1.0 mph 2.0 mph 89 % 0.00 in
08:03 65.3 °F 61.7 °F 30.11 in NNW 2.0 mph 2.0 mph 88 % 0.00 in
08:08 65.8 °F 61.9 °F 30.11 in NNW 1.0 mph 3.0 mph 87 % 0.00 in
08:13 66.6 °F 62.2 °F 30.11 in Calm   3.0 mph 86 % 0.00 in
08:18 67.3 °F 62.2 °F 30.11 in WNW 1.0 mph 3.0 mph 84 % 0.00 in
08:23 67.8 °F 62.4 °F 30.11 in NNW 1.0 mph 2.0 mph 83 % 0.00 in
08:28 68.5 °F 62.8 °F 30.11 in NNE 1.0 mph 2.0 mph 82 % 0.00 in
08:30 69.1 °F 62.6 °F 30.11 in NNW 2.0 mph 2.0 mph 80 % 0.00 in
08:35 69.4 °F 62.6 °F 30.12 in NW 1.0 mph 3.0 mph 79 % 0.00 in
08:40 69.8 °F 62.2 °F 30.12 in Calm   4.0 mph 77 % 0.00 in
08:45 70.2 °F 62.6 °F 30.12 in NNE 1.0 mph 4.0 mph 77 % 0.00 in
08:50 70.5 °F 62.6 °F 30.12 in NNW 1.0 mph 4.0 mph 76 % 0.00 in
08:55 71.1 °F 62.8 °F 30.12 in Calm   4.0 mph 75 % 0.00 in
09:00 71.8 °F 63.5 °F 30.12 in NNW 1.0 mph 4.0 mph 75 % 0.00 in
09:01 72.0 °F 63.7 °F 30.12 in WNW 1.0 mph 4.0 mph 75 % 0.00 in
09:06 72.3 °F 63.1 °F 30.12 in NE 1.0 mph 4.0 mph 73 % 0.00 in
09:11 72.9 °F 63.0 °F 30.12 in ESE 1.0 mph 4.0 mph 71 % 0.00 in
09:16 73.0 °F 61.9 °F 30.12 in NNW 3.0 mph 7.0 mph 68 % 0.00 in
09:21 73.2 °F 62.4 °F 30.12 in NNW 2.0 mph 7.0 mph 69 % 0.00 in
09:26 73.6 °F 62.8 °F 30.12 in East 1.0 mph 7.0 mph 69 % 0.00 in
09:31 73.8 °F 62.1 °F 30.12 in NW 2.0 mph 6.0 mph 67 % 0.00 in
09:36 73.9 °F 62.8 °F 30.12 in East 1.0 mph 7.0 mph 68 % 0.00 in
09:41 74.1 °F 62.1 °F 30.12 in North 2.0 mph 11.0 mph 66 % 0.00 in
09:46 74.3 °F 62.2 °F 30.12 in NNW 3.0 mph 11.0 mph 66 % 0.00 in
09:51 74.7 °F 62.1 °F 30.12 in ESE 1.0 mph 11.0 mph 65 % 0.00 in
09:56 74.8 °F 62.2 °F 30.12 in NE 1.0 mph 8.0 mph 65 % 0.00 in
10:01 75.4 °F 63.1 °F 30.12 in Calm   8.0 mph 66 % 0.00 in
10:06 75.7 °F 62.8 °F 30.13 in NE 3.0 mph 6.0 mph 64 % 0.00 in
10:11 75.9 °F 62.4 °F 30.13 in ENE 3.0 mph 7.0 mph 63 % 0.00 in
10:16 75.9 °F 62.4 °F 30.13 in NE 3.0 mph 7.0 mph 63 % 0.00 in
10:21 76.3 °F 62.8 °F 30.13 in WSW 1.0 mph 7.0 mph 63 % 0.00 in
10:26 76.8 °F 62.8 °F 30.13 in North 2.0 mph 6.0 mph 62 % 0.00 in
10:31 76.8 °F 62.4 °F 30.13 in NE 5.0 mph 6.0 mph 61 % 0.00 in
10:36 76.8 °F 61.9 °F 30.13 in NNW 4.0 mph 6.0 mph 60 % 0.00 in
10:41 76.8 °F 62.4 °F 30.13 in NW 1.0 mph 6.0 mph 61 % 0.00 in
10:46 77.4 °F 62.8 °F 30.13 in NW 2.0 mph 7.0 mph 61 % 0.00 in
10:51 77.7 °F 62.8 °F 30.13 in North 6.0 mph 7.0 mph 60 % 0.00 in
10:53 77.7 °F 62.8 °F 30.13 in ENE 4.0 mph 7.0 mph 60 % 0.00 in
10:58 77.7 °F 62.8 °F 30.13 in ENE 1.0 mph 7.0 mph 60 % 0.00 in
11:03 77.9 °F 62.4 °F 30.13 in NW 2.0 mph 7.0 mph 59 % 0.00 in
11:08 78.3 °F 62.8 °F 30.13 in NNW 2.0 mph 8.0 mph 59 % 0.00 in
11:13 78.4 °F 63.0 °F 30.13 in NNW 1.0 mph 8.0 mph 59 % 0.00 in
11:18 78.4 °F 63.3 °F 30.12 in ENE 2.0 mph 8.0 mph 60 % 0.00 in
11:23 78.8 °F 62.2 °F 30.12 in North 4.0 mph 7.0 mph 57 % 0.00 in
11:28 78.4 °F 63.0 °F 30.12 in East 3.0 mph 7.0 mph 59 % 0.00 in
11:33 78.8 °F 62.8 °F 30.12 in NNW 1.0 mph 8.0 mph 58 % 0.00 in
11:38 79.2 °F 62.6 °F 30.12 in West 1.0 mph 10.0 mph 57 % 0.00 in
11:43 79.3 °F 62.8 °F 30.12 in NNW 6.0 mph 10.0 mph 57 % 0.00 in
11:48 79.7 °F 62.6 °F 30.12 in NNW 5.0 mph 10.0 mph 56 % 0.00 in
11:53 79.7 °F 64.0 °F 30.12 in Calm   9.0 mph 59 % 0.00 in
11:58 80.1 °F 63.9 °F 30.12 in NNW 12.0 mph 12.0 mph 58 % 0.00 in
12:03 79.9 °F 63.3 °F 30.12 in West 2.0 mph 12.0 mph 57 % 0.00 in
12:08 79.5 °F 63.5 °F 30.11 in WNW 3.0 mph 12.0 mph 58 % 0.00 in
12:13 80.1 °F 63.5 °F 30.11 in WNW 2.0 mph 12.0 mph 57 % 0.00 in
12:18 80.4 °F 63.3 °F 30.11 in Calm   9.0 mph 56 % 0.00 in
12:23 81.1 °F 64.0 °F 30.11 in ENE 5.0 mph 9.0 mph 56 % 0.00 in
12:28 81.1 °F 64.0 °F 30.11 in ENE 4.0 mph 8.0 mph 56 % 0.00 in
12:33 80.8 °F 63.7 °F 30.11 in North 2.0 mph 8.0 mph 56 % 0.00 in
12:38 81.3 °F 63.7 °F 30.10 in Calm   8.0 mph 55 % 0.00 in
12:39 81.3 °F 63.7 °F 30.10 in ENE 1.0 mph 8.0 mph 55 % 0.00 in
12:44 81.7 °F 63.5 °F 30.10 in NW 7.0 mph 7.0 mph 54 % 0.00 in
12:49 81.3 °F 62.6 °F 30.10 in NNW 4.0 mph 11.0 mph 53 % 0.00 in
12:54 81.1 °F 63.5 °F 30.10 in North 3.0 mph 11.0 mph 55 % 0.00 in
12:59 81.0 °F 62.2 °F 30.10 in NNW 2.0 mph 11.0 mph 53 % 0.00 in
13:04 81.3 °F 63.1 °F 30.09 in WNW 2.0 mph 11.0 mph 54 % 0.00 in
13:09 82.0 °F 63.7 °F 30.09 in West 3.0 mph 10.0 mph 54 % 0.00 in
13:14 82.0 °F 62.6 °F 30.09 in NW 2.0 mph 11.0 mph 52 % 0.00 in
13:19 82.4 °F 64.0 °F 30.09 in WNW 3.0 mph 11.0 mph 54 % 0.00 in
13:24 82.0 °F 63.1 °F 30.09 in WNW 4.0 mph 11.0 mph 53 % 0.00 in
13:29 82.2 °F 62.8 °F 30.08 in NW 4.0 mph 9.0 mph 52 % 0.00 in
13:34 82.4 °F 62.4 °F 30.08 in NW 2.0 mph 9.0 mph 51 % 0.00 in
13:39 82.6 °F 64.2 °F 30.08 in NW 2.0 mph 11.0 mph 54 % 0.00 in
13:44 82.9 °F 63.5 °F 30.08 in Calm   11.0 mph 52 % 0.00 in
13:49 82.8 °F 62.8 °F 30.08 in NNW 3.0 mph 11.0 mph 51 % 0.00 in
13:54 82.6 °F 63.7 °F 30.08 in NNW 2.0 mph 10.0 mph 53 % 0.00 in
13:59 82.8 °F 63.9 °F 30.08 in NE 5.0 mph 10.0 mph 53 % 0.00 in
14:04 82.6 °F 63.7 °F 30.07 in Calm   9.0 mph 53 % 0.00 in
14:09 83.1 °F 63.1 °F 30.07 in NNW 4.0 mph 9.0 mph 51 % 0.00 in
14:14 82.9 °F 63.5 °F 30.07 in NW 2.0 mph 9.0 mph 52 % 0.00 in
14:19 83.1 °F 63.7 °F 30.06 in NNW 4.0 mph 12.0 mph 52 % 0.00 in
14:24 83.1 °F 63.7 °F 30.06 in NW 3.0 mph 12.0 mph 52 % 0.00 in
14:29 83.1 °F 63.7 °F 30.06 in NW 6.0 mph 12.0 mph 52 % 0.00 in
14:34 83.3 °F 63.9 °F 30.06 in West 3.0 mph 8.0 mph 52 % 0.00 in
14:39 83.1 °F 63.7 °F 30.06 in NNW 3.0 mph 8.0 mph 52 % 0.00 in
14:44 83.3 °F 62.8 °F 30.05 in North 1.0 mph 8.0 mph 50 % 0.00 in
14:49 83.1 °F 63.7 °F 30.05 in WNW 3.0 mph 9.0 mph 52 % 0.00 in
14:54 83.5 °F 64.0 °F 30.05 in ENE 4.0 mph 9.0 mph 52 % 0.00 in
14:59 83.5 °F 63.5 °F 30.05 in NNE 5.0 mph 9.0 mph 51 % 0.00 in
15:04 83.1 °F 63.7 °F 30.04 in NE 6.0 mph 8.0 mph 52 % 0.00 in
15:09 83.1 °F 64.2 °F 30.04 in NW 3.0 mph 8.0 mph 53 % 0.00 in
15:14 83.7 °F 64.2 °F 30.04 in NE 5.0 mph 11.0 mph 52 % 0.00 in
15:19 83.7 °F 63.7 °F 30.04 in WNW 2.0 mph 11.0 mph 51 % 0.00 in
15:24 83.8 °F 63.1 °F 30.04 in NW 2.0 mph 11.0 mph 50 % 0.00 in
15:29 83.7 °F 63.0 °F 30.04 in North 2.0 mph 11.0 mph 50 % 0.00 in
15:34 83.8 °F 63.1 °F 30.04 in WNW 3.0 mph 11.0 mph 50 % 0.00 in
15:39 84.0 °F 63.9 °F 30.03 in ESE 2.0 mph 11.0 mph 51 % 0.00 in
15:44 84.4 °F 63.7 °F 30.03 in North 3.0 mph 11.0 mph 50 % 0.00 in
15:49 84.4 °F 63.7 °F 30.03 in NNW 3.0 mph 12.0 mph 50 % 0.00 in
15:54 84.0 °F 62.2 °F 30.03 in NNW 5.0 mph 12.0 mph 48 % 0.00 in
15:59 84.0 °F 62.8 °F 30.03 in SE 1.0 mph 12.0 mph 49 % 0.00 in
16:04 83.8 °F 63.9 °F 30.03 in NW 3.0 mph 9.0 mph 51 % 0.00 in
16:09 84.0 °F 62.2 °F 30.03 in ENE 7.0 mph 8.0 mph 48 % 0.00 in
16:14 83.8 °F 62.6 °F 30.02 in Calm   10.0 mph 49 % 0.00 in
16:19 84.4 °F 63.7 °F 30.02 in NNW 4.0 mph 10.0 mph 50 % 0.00 in
16:24 84.0 °F 63.3 °F 30.02 in WSW 2.0 mph 10.0 mph 50 % 0.00 in
16:29 83.8 °F 63.1 °F 30.02 in NNW 2.0 mph 10.0 mph 50 % 0.00 in
16:34 84.0 °F 63.9 °F 30.02 in East 2.0 mph 10.0 mph 51 % 0.00 in
16:39 84.4 °F 65.3 °F 30.02 in Calm   8.0 mph 53 % 0.00 in
16:44 84.6 °F 64.4 °F 30.02 in WNW 3.0 mph 7.0 mph 51 % 0.00 in
16:49 84.2 °F 64.0 °F 30.02 in WNW 3.0 mph 8.0 mph 51 % 0.00 in
16:54 84.4 °F 63.7 °F 30.02 in NW 6.0 mph 8.0 mph 50 % 0.00 in
16:59 84.0 °F 63.3 °F 30.02 in West 3.0 mph 8.0 mph 50 % 0.00 in
17:05 84.0 °F 63.3 °F 30.02 in East 2.0 mph 10.0 mph 50 % 0.00 in
17:10 83.8 °F 63.1 °F 30.02 in WNW 1.0 mph 10.0 mph 50 % 0.00 in
17:15 83.8 °F 63.9 °F 30.02 in NNW 1.0 mph 10.0 mph 51 % 0.00 in
17:20 84.0 °F 63.9 °F 30.02 in East 6.0 mph 9.0 mph 51 % 0.00 in
17:25 83.8 °F 64.4 °F 30.02 in NNW 4.0 mph 9.0 mph 52 % 0.00 in
17:30 83.7 °F 64.2 °F 30.02 in NNW 1.0 mph 8.0 mph 52 % 0.00 in
17:35 83.8 °F 63.9 °F 30.02 in North 3.0 mph 8.0 mph 51 % 0.00 in
17:40 83.3 °F 63.9 °F 30.02 in NNW 1.0 mph 8.0 mph 52 % 0.00 in
17:45 83.5 °F 64.6 °F 30.02 in East 3.0 mph 8.0 mph 53 % 0.00 in
17:50 83.3 °F 64.4 °F 30.02 in NNW 3.0 mph 8.0 mph 53 % 0.00 in
17:55 83.3 °F 64.9 °F 30.02 in NNW 1.0 mph 7.0 mph 54 % 0.00 in
18:00 82.9 °F 64.6 °F 30.02 in NNW 2.0 mph 10.0 mph 54 % 0.00 in
18:05 82.8 °F 64.4 °F 30.02 in NW 2.0 mph 10.0 mph 54 % 0.00 in
18:10 82.6 °F 64.2 °F 30.02 in NNE 2.0 mph 10.0 mph 54 % 0.00 in
18:15 82.2 °F 63.9 °F 30.02 in North 4.0 mph 9.0 mph 54 % 0.00 in
18:20 82.2 °F 63.3 °F 30.03 in NE 3.0 mph 10.0 mph 53 % 0.00 in
18:25 82.0 °F 63.7 °F 30.03 in West 2.0 mph 10.0 mph 54 % 0.00 in
18:30 82.0 °F 63.7 °F 30.02 in NNW 1.0 mph 10.0 mph 54 % 0.00 in
18:35 81.9 °F 63.5 °F 30.03 in WNW 4.0 mph 8.0 mph 54 % 0.00 in
18:40 81.5 °F 63.3 °F 30.03 in NNW 2.0 mph 9.0 mph 54 % 0.00 in
18:45 81.3 °F 63.7 °F 30.03 in Calm   9.0 mph 55 % 0.00 in
18:50 81.3 °F 63.7 °F 30.03 in NW 1.0 mph 9.0 mph 55 % 0.00 in
18:55 81.1 °F 62.4 °F 30.03 in NNW 1.0 mph 7.0 mph 53 % 0.00 in
19:00 81.0 °F 62.8 °F 30.03 in NW 1.0 mph 6.0 mph 54 % 0.00 in
19:05 81.0 °F 62.8 °F 30.03 in Calm   6.0 mph 54 % 0.00 in
19:10 80.8 °F 63.1 °F 30.03 in NW 1.0 mph 5.0 mph 55 % 0.00 in
19:15 80.2 °F 63.7 °F 30.03 in NNE 1.0 mph 5.0 mph 57 % 0.00 in
19:20 79.9 °F 63.9 °F 30.03 in NNW 1.0 mph 5.0 mph 58 % 0.00 in
19:25 79.3 °F 63.7 °F 30.03 in North 1.0 mph 5.0 mph 59 % 0.00 in
19:30 78.8 °F 63.7 °F 30.03 in NW 1.0 mph 5.0 mph 60 % 0.00 in
19:35 78.4 °F 63.9 °F 30.03 in NW 1.0 mph 5.0 mph 61 % 0.00 in
19:40 78.1 °F 63.5 °F 30.03 in NNE 4.0 mph 4.0 mph 61 % 0.00 in
19:45 77.7 °F 63.7 °F 30.03 in NW 2.0 mph 5.0 mph 62 % 0.00 in
19:50 77.4 °F 63.9 °F 30.03 in North 2.0 mph 5.0 mph 63 % 0.00 in
19:55 77.2 °F 63.7 °F 30.03 in NNW 2.0 mph 5.0 mph 63 % 0.00 in
20:00 76.8 °F 63.7 °F 30.03 in Calm   4.0 mph 64 % 0.00 in
20:05 76.6 °F 63.5 °F 30.03 in NW 1.0 mph 4.0 mph 64 % 0.00 in
20:10 76.3 °F 63.7 °F 30.03 in NNW 2.0 mph 4.0 mph 65 % 0.00 in
20:15 76.3 °F 64.0 °F 30.04 in NW 1.0 mph 4.0 mph 66 % 0.00 in
20:20 75.9 °F 63.7 °F 30.04 in North 1.0 mph 4.0 mph 66 % 0.00 in
20:25 75.7 °F 64.0 °F 30.04 in Calm   4.0 mph 67 % 0.00 in
20:26 75.7 °F 64.0 °F 30.04 in Calm   4.0 mph 67 % 0.00 in
20:31 75.6 °F 63.9 °F 30.04 in NNW 1.0 mph 4.0 mph 67 % 0.00 in
20:36 75.4 °F 64.0 °F 30.04 in NNW 1.0 mph 4.0 mph 68 % 0.00 in
20:41 75.0 °F 63.7 °F 30.04 in Calm   4.0 mph 68 % 0.00 in
20:46 75.0 °F 63.7 °F 30.04 in NNW 1.0 mph 4.0 mph 68 % 0.00 in
20:51 74.8 °F 63.5 °F 30.04 in Calm   3.0 mph 68 % 0.00 in
20:56 74.8 °F 63.5 °F 30.05 in NNW 3.0 mph 4.0 mph 68 % 0.00 in
21:01 74.8 °F 63.5 °F 30.05 in NNW 1.0 mph 4.0 mph 68 % 0.00 in
21:06 74.7 °F 63.9 °F 30.05 in North 1.0 mph 4.0 mph 69 % 0.00 in
21:11 74.5 °F 63.7 °F 30.05 in NW 2.0 mph 4.0 mph 69 % 0.00 in
21:16 74.5 °F 63.7 °F 30.05 in North 1.0 mph 3.0 mph 69 % 0.00 in
21:21 74.3 °F 63.5 °F 30.06 in Calm   3.0 mph 69 % 0.00 in
21:26 74.1 °F 63.7 °F 30.06 in North 2.0 mph 3.0 mph 70 % 0.00 in
21:31 73.9 °F 63.5 °F 30.06 in NNW 2.0 mph 3.0 mph 70 % 0.00 in
21:36 73.8 °F 63.3 °F 30.06 in NNW 1.0 mph 3.0 mph 70 % 0.00 in
21:41 73.6 °F 63.7 °F 30.06 in North 1.0 mph 3.0 mph 71 % 0.00 in
21:46 73.6 °F 63.7 °F 30.06 in Calm   3.0 mph 71 % 0.00 in
21:51 73.4 °F 63.5 °F 30.06 in Calm   3.0 mph 71 % 0.00 in
21:56 73.2 °F 63.3 °F 30.06 in Calm   3.0 mph 71 % 0.00 in
22:01 73.0 °F 63.5 °F 30.06 in Calm   3.0 mph 72 % 0.00 in
22:06 73.0 °F 63.5 °F 30.06 in Calm   2.0 mph 72 % 0.00 in
22:11 72.9 °F 63.3 °F 30.06 in Calm   2.0 mph 72 % 0.00 in
22:16 72.7 °F 63.1 °F 30.06 in North 1.0 mph 3.0 mph 72 % 0.00 in
22:21 72.7 °F 63.5 °F 30.06 in Calm   3.0 mph 73 % 0.00 in
22:26 72.7 °F 63.5 °F 30.06 in Calm   4.0 mph 73 % 0.00 in
22:31 72.5 °F 63.3 °F 30.06 in Calm   4.0 mph 73 % 0.00 in
22:36 72.3 °F 63.1 °F 30.06 in Calm   4.0 mph 73 % 0.00 in
22:41 72.1 °F 63.3 °F 30.07 in North 1.0 mph 3.0 mph 74 % 0.00 in
22:46 72.1 °F 63.3 °F 30.06 in Calm   3.0 mph 74 % 0.00 in
22:51 72.0 °F 63.7 °F 30.07 in Calm   3.0 mph 75 % 0.00 in
22:56 72.0 °F 63.7 °F 30.07 in NNW 1.0 mph 3.0 mph 75 % 0.00 in
23:01 71.8 °F 63.5 °F 30.07 in NW 2.0 mph 3.0 mph 75 % 0.00 in
23:06 71.8 °F 63.5 °F 30.07 in NNW 1.0 mph 3.0 mph 75 % 0.00 in
23:11 71.8 °F 63.5 °F 30.07 in Calm   3.0 mph 75 % 0.00 in
23:16 71.6 °F 63.3 °F 30.07 in Calm   3.0 mph 75 % 0.00 in
23:21 71.6 °F 63.3 °F 30.07 in Calm   4.0 mph 75 % 0.00 in
23:26 71.4 °F 63.1 °F 30.07 in NNW 1.0 mph 4.0 mph 75 % 0.00 in
23:31 71.4 °F 63.1 °F 30.07 in Calm   4.0 mph 75 % 0.00 in
23:36 71.4 °F 62.8 °F 30.07 in WNW 1.0 mph 4.0 mph 74 % 0.00 in
23:41 71.4 °F 62.8 °F 30.06 in North 1.0 mph 4.0 mph 74 % 0.00 in
23:46 71.6 °F 63.0 °F 30.06 in Calm   4.0 mph 74 % 0.00 in
23:51 71.4 °F 62.8 °F 30.06 in North 1.0 mph 4.0 mph 74 % 0.00 in
23:57 71.4 °F 62.8 °F 30.06 in NW 2.0 mph 6.0 mph 74 % 0.00 in
Spring, Texas: Villages of Bridgestone
Compliments of Weather Underground - 3 mb

Script developed by  Jim McMurry - jmcmurry@mwt.net Adapted for the template by  Wim van der Kuil - Leuven-Template.eu

You find our weather info also at:

UK Metoffice

WeatherCloud

Weather Underground

Mid-South Weather Network

AWEKAS

Citizen Weather Observer Program (CWOP)

HAMweather, WeatherForYou, PWS Weather

Equipment we use:

Weather-station
Davis Vantage Vue

Weather-program
Meteohub

Weather-server
Debian 7.9 x86 (Guest)

Provider
DreamHost

Davis Vantage Vue

Meteohub

Debian 7.9 x86 (Guest)

DreamHost